Regional Weather Roundup
Issued by NWS

Home | Current Version | Previous Version | Text Only | Print | Product List | Glossary Off
Versions: 1 2 3 4 5 6 7 8 9 10 11 12 13 14 15 16 17 18 19 20 21 22 23 24 25 26 27 28 29 30 31 32 33 34 35 36 37 38 39 40 41 42 43 44 45 46 47 48 49 50

000
ASUS43 KOAX 262210
RWRNE

WEATHER ROUNDUP FOR NEBRASKA
NATIONAL WEATHER SERVICE OMAHA NE
400 PM CST FRI DEC 26 2014

NOTES: SATELLITE DATA IS BEING USED TO AUGMENT CLOUD COVER ABOVE
       12000 FEET.
       "FAIR" INDICATES FEW OR NO CLOUDS BELOW 12,000 FEET WITH NO
       SIGNIFICANT WEATHER AND/OR OBSTRUCTIONS TO VISIBILITY.

  * THESE STATIONS DO NOT REPORT WEATHER SUCH AS RAIN...SNOW OR FOG.

NEZ001>004-019>022-054>056-262300-
NEBRASKA PANHANDLE

CITY           SKY/WX    TMP DP  RH WIND       PRES   REMARKS
SCOTTSBLUFF    LGT SNOW  20  16  84 N5        30.02S FOG     WCI  13
ALLIANCE       CLOUDY    18  14  84 N13       30.01S WCI   5
CHADRON        CLOUDY    20  14  77 NE7       30.08R WCI  11
KIMBALL        FLURRIES  16  12  83 N9        29.94R WCI   5
SIDNEY         MOSUNNY   17  11  77 N13       29.99R WCI   4
$$

NEZ057>060-069>072-079>082-262300-
SOUTHWEST NEBRASKA

CITY           SKY/WX    TMP DP  RH WIND       PRES   REMARKS
NORTH PLATTE   LGT SNOW  23  19  85 N10       30.02R FOG     WCI  12
IMPERIAL       LGT SNOW  21  16  81 N15       30.01R WCI   8
LEXINGTON      CLOUDY    27  19  72 N12       30.00R WCI  16
MCCOOK         LGT SNOW  25  20  81 N16       30.01R VSB 1   WCI  12
OGALLALA       LGT SNOW  22  19  89 N10       30.02R VSB 3/4 WCI  11
$$

NEZ005>010-023>029-035>040-094-262300-
NORTH CENTRAL NEBRASKA

CITY           SKY/WX    TMP DP  RH WIND       PRES   REMARKS
VALENTINE      CLOUDY    20  16  84 N12       30.09R WCI   8
AINSWORTH      LGT SNOW  20  18  92 N15       30.06S WCI   7
BROKEN BOW     LGT SNOW  24  18  77 N17       30.00R WCI  11
O`NEILL        LGT SNOW  23  22  96 N9        30.07R WCI  13
ORD            CLOUDY    24  16  71 N16       30.02S WCI  11
THEDFORD       LGT SNOW  22  20  91 N15       30.04R WCI   9
$$

NEZ041-046>049-061>064-073>077-083>087-262300-
SOUTH CENTRAL NEBRASKA

CITY           SKY/WX    TMP DP  RH WIND       PRES   REMARKS
GRAND ISLAND   FRZ RAIN  26  23  88 N20       30.00S FOG     WCI  12
AURORA         CLOUDY    28  26  96 N16       30.00R FOG     WCI  15
HASTINGS       CLOUDY    27  23  85 N15       29.98R FOG     WCI  15
HEBRON         CLOUDY    30  26  85 N10G16    29.98R WCI  21
HOLDREGE       LGT SNOW  25  22  88 N15       29.99R VSB 3/4 WCI  13
KEARNEY *      CLOUDY    27  19  74 N20       30.00S WCI  13
YORK           LGT SNOW  28  27  93 N20G26    29.99S WCI  15
$$

NEZ011>018-030>034-042>045-262300-
NORTHEAST NEBRASKA

CITY           SKY/WX    TMP DP  RH WIND       PRES   REMARKS
NORFOLK        CLOUDY    27  23  85 N20       30.02R WCI  13
ALBION         CLOUDY    26  20  79 N15G23    30.01F WCI  14
BLAIR          CLOUDY    32  29  88 N12       29.98R WCI  23
COLUMBUS *     CLOUDY    28  21  74 N17       30.02S WCI  16
FREMONT        CLOUDY    32  29  88 N9        30.01R WCI  24
TEKAMAH        CLOUDY    33  29  85 N15       30.02R WCI  23
WAYNE          CLOUDY    29  25  85 N14       30.04R WCI  19
$$

NEZ050>053-065>068-078-088>093-262300-
SOUTHEAST NEBRASKA

CITY           SKY/WX    TMP DP  RH WIND       PRES   REMARKS
LINCOLN        CLOUDY    32  27  81 N17       30.00F WCI  21
OMAHA EPPLEY   CLOUDY    33  30  88 N12       30.00S WCI  24
BEATRICE       CLOUDY    32  29  90 N10       29.97R FOG     WCI  23
FALLS CITY     CLOUDY    36  31  82 N5        29.96R WCI  32
NEBRASKA CITY  CLOUDY    33  33  98 N8        29.98R FOG     WCI  26
PLATTSMOUTH    CLOUDY    32  29  89 N7        29.96F FOG     WCI  26
$$

NEZ044-045-051>053-067-262300-
OMAHA AREA

CITY           SKY/WX    TMP DP  RH WIND       PRES   REMARKS
OMAHA EPPLEY   CLOUDY    33  30  88 N12       30.00S WCI  24
BLAIR          CLOUDY    32  29  88 N12       29.98R WCI  23
FREMONT        CLOUDY    32  29  88 N9        30.01R WCI  24
MILLARD        CLOUDY    33  29  85 N7        29.98F WCI  27
OFFUTT AFB     CLOUDY    33  30  86 N8        29.98F WCI  27
PLATTSMOUTH    CLOUDY    32  29  89 N7        29.96F FOG     WCI  26
WAHOO          CLOUDY    32  28  83 N16       30.00S HAZE    WCI  21
$$



USA.gov is the U.S. government's official web portal to all federal, state and local government web resources and services.